Regional Weather Roundup
Issued by NWS

Home | Current Version | Previous Version | Graphics & Text | Print | Product List | Glossary On
Versions: 1 2 3 4 5 6 7 8 9 10 11 12 13 14 15 16 17 18 19 20 21 22 23 24 25 26 27 28 29 30 31 32 33 34 35 36 37 38 39 40 41 42 43 44 45 46 47 48 49 50
000
ASUS44 KMEG 210910
RWRTN
TENNESSEE HOURLY STATE WEATHER ROUNDUP
NATIONAL WEATHER SERVICE MEMPHIS TN
300 AM CST SAT JAN 21 2017

TNZ002-004-019-021-049-052-054-088>092-211000-
WEST TENNESSEE

CITY           SKY/WX    TMP DP  RH WIND       PRES   REMARKS
MEMPHIS INTL   CLOUDY    61  52  72 CALM      29.68F
NWS MEMPHIS      N/A     60 N/A N/A MISG        N/A
JACKSON        CLOUDY    62  53  72 S7        29.71F
DYERSBURG      CLOUDY    59  50  72 S6        29.68F
UNION CITY     CLEAR     55  55 100 CALM      29.68S
PARIS          PTCLDY    54  50  87 CALM      29.71F
HUNTINGDON     PTCLDY    57  54  88 S7        29.70F
$$

TNZ008-025-027-028-033-062-065-066-211000-
NORTH MIDDLE TENNESSEE

CITY           SKY/WX    TMP DP  RH WIND       PRES   REMARKS
NASHVILLE      CLOUDY    57  52  83 S6        29.77S
PORTLAND       CLEAR     59  54  82 S9        29.76S
CLARKSVILLE    CLOUDY    56  50  80 S3        29.73S
SMYRNA         CLOUDY    58  54  86 S6        29.78F
GALLATIN       CLEAR     55  52  88 CALM      29.79F
CROSSVILLE     PTCLDY    54  50  86 S5        29.84R
$$

TNZ061-075-076-078-094-096-097-211000-
SOUTH MIDDLE TENNESSEE

CITY           SKY/WX    TMP DP  RH WIND       PRES   REMARKS
TULLAHOMA      CLEAR     54  52  94 SE3       29.80F
WINCHESTER     CLEAR     55  54  94 CALM      29.81S
MCMINNVILLE    CLEAR     54  52  94 CALM      29.80F
COLUMBIA       CLEAR     59  59 100 S7        29.76R
SHELBYVILLE    CLEAR     61  57  88 SE5       29.80S
$$

TNZ017-018-042-046-047-211000-
NORTHEAST TENNESSEE

CITY           SKY/WX    TMP DP  RH WIND       PRES   REMARKS
TRI CITIES     MOCLDY    46  45  96 CALM      29.87S
ELIZABETHTON   PTCLDY    46  46 100 NE3       29.88F
$$

TNZ012-013-036-069-073-074-211000-
CENTRAL EAST TENNESSEE

CITY           SKY/WX    TMP DP  RH WIND       PRES   REMARKS
KNOXVILLE      CLOUDY    53  49  86 CALM      29.83S
OAK RIDGE      PTCLDY    50  47  89 W3        29.85S
GATLINBURG     CLEAR     45  45 100 CALM      29.84F
MORRISTOWN     PTCLDY    52  50  93 CALM      29.83F
JACKSBORO      CLEAR     46  46 100 CALM      29.87S FOG
$$

TNZ083-085-099-211000-
SOUTHEAST TENNESSEE

CITY           SKY/WX    TMP DP  RH WIND       PRES   REMARKS
CHATTANOOGA    PTCLDY    52  49  89 CALM      29.83S
$$

SKY/WX REPORTED AS FAIR MEANS FEW OR NO CLOUDS BELOW
12 THOUSAND FEET.




USA.gov is the U.S. government's official web portal to all federal, state and local government web resources and services.